Regional Weather Roundup
Issued by NWS

Home | Current Version | Previous Version | Text Only | Print | Product List | Glossary On
Versions: 1 2 3 4 5 6 7 8 9 10 11 12 13 14 15 16 17 18 19 20 21 22 23 24 25 26 27 28 29 30 31 32 33 34 35 36 37 38 39 40 41 42 43 44 45 46 47 48 49 50
000
ASUS45 KBOU 050807
RWRCO

WEATHER ROUNDUP FOR COLORADO
NATIONAL WEATHER SERVICE DENVER/BOULDER CO
200 AM MDT WED AUG 05 2015

NOTE: "FAIR" INDICATES FEW OR NO CLOUDS BELOW 12000 FEET WITH NO
SIGNIFICANT WEATHER AND/OR OBSTRUCTIONS TO VISIBILITY.

COZ001>005-013-030-031-050900-
...NORTHWEST COLORADO...

CITY           SKY/WX    TMP DP  RH WIND       PRES   REMARKS
CRAIG          NOT AVBL
HAYDEN         CLEAR     55  43  62 E9        30.24F
MEEKER         CLEAR     55  39  54 NE10      30.24F
MOUNT WERNER   NOT AVBL
STEAMBOAT SPGS   N/A    N/A N/A N/A MISG        N/A
WALDEN         CLEAR     43  36  75 SE7       30.36S
$$

COZ006>008-011-050900-
...WEST CENTRAL VALLEYS...

CITY           SKY/WX    TMP DP  RH WIND       PRES   REMARKS
GRAND JUNCTION CLEAR     69  42  37 E8        30.10R
MONTROSE       CLEAR     66  44  45 SE9       30.21R
EAGLE          CLEAR     55  39  54 SE3       30.31S
RIFLE          CLEAR     63  46  54 SE5       30.19S
DELTA          CLEAR     65  43  44 E8        30.16S
NUCLA          CLEAR     61  45  55 SE8       30.23S
$$

COZ017>023-064>068-050900-
...SOUTHWEST COLORADO...

CITY           SKY/WX    TMP DP  RH WIND       PRES   REMARKS
DURANGO        CLEAR     56  42  59 CALM      30.27S
CORTEZ         CLEAR     53  46  77 SE3       30.21R
PAGOSA SPRINGS CLEAR     54  39  57 CALM      30.36S
TELLURIDE      CLEAR     53  41  65 SE6       30.49S
WOLF CREEK PAS NOT AVBL
$$

COZ009-010-012-014-032>034-037-058>063-050900-
...CENTRAL COLORADO...

CITY           SKY/WX    TMP DP  RH WIND       PRES   REMARKS
ASPEN          CLEAR     52  40  63 SW9       30.36S
BUENA VISTA    CLEAR     54  39  57 NW10      30.39R
COPPER MTN     CLEAR     52  34  50 SW9       30.67F
BERTHOUD PASS  FAIR      43  32  65 W23G33    30.68S
COTTONWOOD PAS CLEAR     59  30  33 W8        30.52R
GUNNISON       CLEAR     50  39  66 N6        30.41S
KREMMLING      CLEAR     48  37  66 CALM      30.36S
LEADVILLE      CLEAR     42  35  76 NE6       30.52R
MONARCH PASS   CLEAR     48  30  49 W9        30.77F
SALIDA         CLEAR     57  38  49 W6        30.44R
SUNLIGHT       CLEAR     55  36  47 CALM      30.59F
WILKERSON PASS NOT AVBL
$$

COZ069>075-050900-
...SAN LUIS VALLEY/SANGRE DE CRISTO MOUNTAINS...

CITY           SKY/WX    TMP DP  RH WIND       PRES   REMARKS
ALAMOSA        CLEAR     51  43  74 E9        30.34R
LA VETA PASS   CLEAR     52  39  62 MISG      30.54S
SAGUACHE       CLEAR     55  37  50 NW15      30.37S
$$

COZ035-036-038>040-050900-
...NORTHERN COLORADO FRONT RANGE...

CITY           SKY/WX    TMP DP  RH WIND       PRES   REMARKS
DENVER INTL AP CLEAR     61  51  70 SW9       30.15F
DMNS CITY PARK   N/A     63  52  67 S5        30.15F
AURORA         PTCLDY    60  52  73 S8        30.18F
FRONT RANGE AP NOT AVBL
ERIE MUNI ARPT CLEAR     58  51  75 CALM      30.14F
BOULDER MUN AP CLEAR     63  48  59 CALM      30.15S
CENTENNIAL     CLEAR     60  46  59 SE5       30.20F
BROOMFIELD     CLEAR     63  43  48 W3        30.18F
FORT COLLINS   CLEAR     61  52  72 N6        30.15F
LONGMONT       CLEAR     63  50  63 CALM      30.15F
$$

COZ041-046-047-076>085-087-088-050900-
...PIKES PEAK/PALMER DIVIDE AND SOUTHERN FOOTHILLS...

CITY           SKY/WX    TMP DP  RH WIND       PRES   REMARKS
COLO. SPRINGS  CLEAR     60  52  74 N5        30.25F
A. F. ACADEMY  CLEAR     53  47  81 N10       30.27F
ELLICOTT       CLEAR      1  32 100 CALM      30.23F
FALCON         CLEAR     58  54  85 W9        30.30F
FORT CARSON    CLEAR     66  54  66 W6        30.21F
LIMON          CLEAR     50  49  96 NW3       30.18F
MONUMENT HILL  CLEAR     55  50  82 SW7       30.29F
TRINIDAD       CLEAR     63  56  78 W10       30.19S
$$

COZ042>045-048>051-090-091-050900-
...NORTHEAST COLORADO...

CITY           SKY/WX    TMP DP  RH WIND       PRES   REMARKS
GREELEY ARPT   CLEAR     57  54  88 N6        30.14S
AKRON          CLEAR     62  55  77 SW8       30.11S
BURLINGTON     CLEAR     62  59  90 W5        30.08F
WRAY           CLEAR    N/A N/A N/A N3        30.06F
STERLING       CLEAR     55  55 100 CALM      30.08S
HOLYOKE        FOG       63  59  88 CALM      30.07F VSB 1/4
FORT MORGAN    CLEAR     61  54  78 W6        30.12S
$$

COZ086-089-092>099-050900-
...SOUTHEAST COLORADO...

CITY           SKY/WX    TMP DP  RH WIND       PRES   REMARKS
PUEBLO         CLEAR     67  57  70 N8        30.14S
LA JUNTA       CLEAR     66  63  90 NW8       30.08R
LAMAR          CLEAR     66  62  87 NE3       30.02S
SPRINGFIELD      N/A     65  62  90 NE6       30.06R
$$



USA.gov is the U.S. government's official web portal to all federal, state and local government web resources and services.